ITY7875 ELLX-LIRN

Flight info

Callsign ITY7875
Flight time 1h 40m
Altitude 37000
Route GTQ DCT DEVDI DCT RIPUS DCT RESIA DCT LUMAV DCT GOTMO DCT EVULI DCT ERIKA
Aircraft A320/M-SDE3FGHIRWY/LB1

Departure

Time 2026-04-27 13:13
Airport Luxembourg-Findel International Airport (ELLX)

Arrival

Time 2026-04-27 14:54
Airport Naples International Airport (LIRN)
Time Latitude Longitude Altitude Speed Heading
2026-04-27 12:55 49.63371 6.21737 1245 ft 0 kts 330°
2026-04-27 13:05 49.63357 6.21750 1246 ft 4 kts 325°
2026-04-27 13:05 49.63337 6.21776 1253 ft 4 kts 298°
2026-04-27 13:05 49.63329 6.21794 1251 ft 4 kts 204°
2026-04-27 13:05 49.63326 6.21796 1252 ft 0 kts 165°
2026-04-27 13:07 49.63320 6.21799 1249 ft 3 kts 163°
2026-04-27 13:07 49.63288 6.21824 1238 ft 8 kts 152°
2026-04-27 13:08 49.63224 6.21875 1246 ft 13 kts 152°
2026-04-27 13:08 49.63152 6.21879 1239 ft 10 kts 227°
2026-04-27 13:08 49.63125 6.21793 1242 ft 8 kts 245°
2026-04-27 13:08 49.63093 6.21698 1238 ft 13 kts 243°
2026-04-27 13:09 49.63042 6.21540 1249 ft 20 kts 243°
2026-04-27 13:09 49.62976 6.21326 1245 ft 23 kts 245°
2026-04-27 13:09 49.62907 6.21094 1241 ft 24 kts 244°
2026-04-27 13:09 49.62833 6.20857 1252 ft 25 kts 244°
2026-04-27 13:10 49.62729 6.20663 1255 ft 23 kts 218°
2026-04-27 13:10 49.62616 6.20499 1241 ft 22 kts 228°
2026-04-27 13:10 49.62513 6.20316 1243 ft 25 kts 229°
2026-04-27 13:10 49.62413 6.20064 1223 ft 31 kts 241°
2026-04-27 13:11 49.62305 6.19767 1207 ft 33 kts 239°
2026-04-27 13:11 49.62181 6.19438 1190 ft 39 kts 240°
2026-04-27 13:11 49.62053 6.19090 1171 ft 30 kts 240°
2026-04-27 13:11 49.61945 6.18820 1164 ft 19 kts 223°
2026-04-27 13:12 49.61839 6.18718 1164 ft 15 kts 195°
2026-04-27 13:12 49.61771 6.18770 1168 ft 8 kts 109°
2026-04-27 13:12 49.61787 6.18838 1169 ft 9 kts 47°
2026-04-27 13:12 49.61856 6.19035 1174 ft 47 kts 61°
2026-04-27 13:13 49.62125 6.19752 1208 ft 106 kts 60°
2026-04-27 13:13 49.62578 6.20971 1250 ft 155 kts 60°
2026-04-27 13:13 49.63127 6.22496 1658 ft 166 kts 60°
2026-04-27 13:13 49.63706 6.24057 2340 ft 170 kts 60°
2026-04-27 13:14 49.64317 6.25706 2804 ft 187 kts 64°
2026-04-27 13:14 49.64479 6.27772 3091 ft 210 kts 105°
2026-04-27 13:14 49.63624 6.29733 3371 ft 237 kts 136°
2026-04-27 13:14 49.62331 6.31507 3822 ft 259 kts 139°
2026-04-27 13:15 49.60846 6.33133 4585 ft 266 kts 154°
2026-04-27 13:15 49.59135 6.34263 5471 ft 269 kts 158°
2026-04-27 13:15 49.57404 6.35352 6311 ft 274 kts 159°
2026-04-27 13:15 49.55615 6.36457 7084 ft 280 kts 160°
2026-04-27 13:16 49.53802 6.37577 7891 ft 283 kts 159°
2026-04-27 13:16 49.51967 6.38714 8716 ft 286 kts 160°
2026-04-27 13:16 49.50114 6.39865 9532 ft 289 kts 160°
2026-04-27 13:16 49.48239 6.41034 10330 ft 293 kts 159°
2026-04-27 13:17 49.46295 6.42244 10682 ft 313 kts 159°
2026-04-27 13:17 49.44205 6.43540 10945 ft 334 kts 159°
2026-04-27 13:17 49.42024 6.44895 11502 ft 342 kts 159°
2026-04-27 13:17 49.39797 6.46285 12177 ft 347 kts 159°
2026-04-27 13:18 49.37578 6.47669 12861 ft 351 kts 159°
2026-04-27 13:18 49.35302 6.49085 13544 ft 355 kts 159°
2026-04-27 13:18 49.33000 6.50512 14204 ft 359 kts 159°
2026-04-27 13:18 49.30666 6.51956 14808 ft 363 kts 160°
2026-04-27 13:19 49.28306 6.53413 15410 ft 368 kts 160°
2026-04-27 13:19 49.25925 6.54883 15997 ft 372 kts 160°
2026-04-27 13:19 49.23510 6.56375 16580 ft 376 kts 160°
2026-04-27 13:19 49.21075 6.57876 17175 ft 380 kts 160°
2026-04-27 13:20 49.18611 6.59389 17738 ft 384 kts 161°
2026-04-27 13:20 49.16146 6.60901 18304 ft 388 kts 161°
2026-04-27 13:20 49.13630 6.62447 18807 ft 392 kts 161°
2026-04-27 13:20 49.11093 6.64011 19305 ft 395 kts 160°
2026-04-27 13:21 49.08530 6.65585 19806 ft 399 kts 161°
2026-04-27 13:21 49.05943 6.67167 20341 ft 402 kts 161°
2026-04-27 13:21 49.03344 6.68752 20868 ft 404 kts 161°
2026-04-27 13:21 49.00720 6.70352 21390 ft 407 kts 161°
2026-04-27 13:22 48.98084 6.71965 21909 ft 410 kts 160°
2026-04-27 13:22 48.95441 6.73670 22424 ft 414 kts 159°
2026-04-27 13:22 48.92839 6.75436 22927 ft 417 kts 158°
2026-04-27 13:22 48.90198 6.77278 23421 ft 420 kts 158°
2026-04-27 13:23 48.87534 6.79146 23855 ft 423 kts 158°
2026-04-27 13:23 48.84861 6.81012 24248 ft 425 kts 159°
2026-04-27 13:23 48.82159 6.82877 24636 ft 427 kts 159°
2026-04-27 13:23 48.79445 6.84730 25018 ft 429 kts 159°
2026-04-27 13:24 48.76710 6.86581 25395 ft 432 kts 159°
2026-04-27 13:24 48.73959 6.88438 25769 ft 434 kts 159°
2026-04-27 13:24 48.71229 6.90282 26113 ft 436 kts 159°
2026-04-27 13:24 48.68452 6.92161 26460 ft 438 kts 159°
2026-04-27 13:25 48.65668 6.94042 26827 ft 440 kts 159°
2026-04-27 13:25 48.62865 6.95935 27179 ft 442 kts 159°
2026-04-27 13:25 48.60044 6.97836 27478 ft 446 kts 159°
2026-04-27 13:25 48.57198 6.99749 27794 ft 448 kts 159°
2026-04-27 13:26 48.54347 7.01662 28113 ft 450 kts 159°
2026-04-27 13:26 48.51466 7.03591 28442 ft 453 kts 159°
2026-04-27 13:26 48.48583 7.05520 28752 ft 455 kts 159°
2026-04-27 13:26 48.45684 7.07458 29072 ft 457 kts 160°
2026-04-27 13:27 48.42806 7.09378 29361 ft 459 kts 159°
2026-04-27 13:27 48.39885 7.11327 29638 ft 460 kts 159°
2026-04-27 13:27 48.36956 7.13280 29943 ft 462 kts 159°
2026-04-27 13:27 48.34011 7.15246 30223 ft 463 kts 159°
2026-04-27 13:28 48.31063 7.17213 30458 ft 465 kts 159°
2026-04-27 13:28 48.28097 7.19190 30682 ft 467 kts 160°
2026-04-27 13:28 48.25115 7.21170 30893 ft 469 kts 160°
2026-04-27 13:28 48.22120 7.23150 31111 ft 471 kts 160°
2026-04-27 13:29 48.19155 7.25110 31343 ft 473 kts 159°
2026-04-27 13:29 48.16150 7.27101 31629 ft 472 kts 159°
2026-04-27 13:29 48.13151 7.29089 31902 ft 472 kts 159°
2026-04-27 13:29 48.10148 7.31074 32184 ft 471 kts 160°
2026-04-27 13:30 48.07149 7.33048 32468 ft 471 kts 160°
2026-04-27 13:30 48.04149 7.35015 32739 ft 471 kts 160°
2026-04-27 13:30 48.01144 7.36982 33018 ft 470 kts 160°
2026-04-27 13:30 47.98154 7.38938 33285 ft 470 kts 160°
2026-04-27 13:31 47.95159 7.40900 33573 ft 469 kts 160°
2026-04-27 13:31 47.92169 7.42861 33860 ft 469 kts 160°
2026-04-27 13:31 47.89227 7.44789 34141 ft 468 kts 160°
2026-04-27 13:31 47.86243 7.46743 34391 ft 468 kts 160°
2026-04-27 13:32 47.83264 7.48687 34642 ft 467 kts 160°
2026-04-27 13:32 47.80289 7.50622 34881 ft 467 kts 160°
2026-04-27 13:32 47.77346 7.52675 35121 ft 469 kts 154°
2026-04-27 13:32 47.74614 7.55332 35335 ft 472 kts 144°
2026-04-27 13:33 47.72173 7.58615 35562 ft 475 kts 135°
2026-04-27 13:33 47.70094 7.62424 35789 ft 476 kts 128°
2026-04-27 13:33 47.68145 7.66393 36005 ft 475 kts 128°
2026-04-27 13:33 47.66216 7.70290 36202 ft 475 kts 128°
2026-04-27 13:34 47.64258 7.74221 36397 ft 475 kts 128°
2026-04-27 13:34 47.62293 7.78156 36571 ft 475 kts 128°
2026-04-27 13:34 47.60328 7.82087 36751 ft 474 kts 128°
2026-04-27 13:34 47.58366 7.86012 36924 ft 474 kts 128°
2026-04-27 13:35 47.56403 7.89941 37106 ft 474 kts 128°
2026-04-27 13:35 47.54441 7.93863 37155 ft 474 kts 128°
2026-04-27 13:35 47.50547 8.01629 37153 ft 472 kts 128°
2026-04-27 13:36 47.46628 8.09411 37150 ft 472 kts 128°
2026-04-27 13:36 47.42711 8.17180 37148 ft 472 kts 128°
2026-04-27 13:37 47.38779 8.24947 37147 ft 472 kts 128°
2026-04-27 13:37 47.34845 8.32693 37155 ft 472 kts 128°
2026-04-27 13:38 47.30913 8.40426 37150 ft 472 kts 128°
2026-04-27 13:38 47.26998 8.48093 37157 ft 472 kts 128°
2026-04-27 13:39 47.23081 8.55841 37165 ft 472 kts 127°
2026-04-27 13:39 47.19245 8.63660 37168 ft 472 kts 127°
2026-04-27 13:40 47.15407 8.71491 37174 ft 472 kts 127°
2026-04-27 13:40 47.11563 8.79229 37162 ft 472 kts 127°
2026-04-27 13:41 47.07684 8.86991 37160 ft 471 kts 127°
2026-04-27 13:41 47.03803 8.94735 37154 ft 471 kts 127°
2026-04-27 13:42 46.99927 9.02468 37149 ft 471 kts 127°
2026-04-27 13:42 46.96045 9.10196 37154 ft 471 kts 127°
2026-04-27 13:43 46.92188 9.17852 37138 ft 470 kts 127°
2026-04-27 13:43 46.88290 9.25558 37131 ft 471 kts 127°
2026-04-27 13:44 46.84387 9.33235 37132 ft 471 kts 127°
2026-04-27 13:44 46.80482 9.40912 37140 ft 471 kts 127°
2026-04-27 13:45 46.76578 9.48580 37148 ft 470 kts 127°
2026-04-27 13:45 46.72672 9.56215 37161 ft 469 kts 127°
2026-04-27 13:46 46.68795 9.63783 37180 ft 469 kts 127°
2026-04-27 13:46 46.64894 9.71389 37191 ft 469 kts 127°
2026-04-27 13:47 46.60985 9.78979 37210 ft 469 kts 127°
2026-04-27 13:47 46.57066 9.86546 37201 ft 468 kts 127°
2026-04-27 13:48 46.53176 9.94037 37186 ft 468 kts 127°
2026-04-27 13:48 46.49234 10.01549 37198 ft 467 kts 131°
2026-04-27 13:49 46.44381 10.07743 37193 ft 465 kts 147°
2026-04-27 13:49 46.39008 10.12972 37174 ft 465 kts 146°
2026-04-27 13:50 46.33675 10.18177 37158 ft 465 kts 146°
2026-04-27 13:50 46.28298 10.23402 37157 ft 466 kts 147°
2026-04-27 13:51 46.22920 10.28605 37151 ft 466 kts 147°
2026-04-27 13:51 46.17546 10.33814 37141 ft 465 kts 147°
2026-04-27 13:52 46.12166 10.39022 37144 ft 465 kts 146°
2026-04-27 13:52 46.06824 10.44172 37137 ft 465 kts 146°
2026-04-27 13:53 45.98764 10.51925 37136 ft 464 kts 146°
2026-04-27 13:54 45.93389 10.57071 37140 ft 464 kts 146°
2026-04-27 13:54 45.88015 10.62207 37133 ft 464 kts 147°
2026-04-27 13:55 45.82670 10.67296 37123 ft 463 kts 147°
2026-04-27 13:55 45.77308 10.72390 37131 ft 463 kts 147°
2026-04-27 13:56 45.71941 10.77487 37123 ft 462 kts 146°
2026-04-27 13:56 45.66581 10.82572 37113 ft 462 kts 146°
2026-04-27 13:57 45.61221 10.87626 37101 ft 461 kts 147°
2026-04-27 13:57 45.55901 10.92631 37102 ft 461 kts 147°
2026-04-27 13:58 45.50555 10.97666 37103 ft 461 kts 147°
2026-04-27 13:58 45.45207 11.02686 37095 ft 460 kts 147°
2026-04-27 13:59 45.39858 11.07691 37088 ft 460 kts 147°
2026-04-27 13:59 45.34545 11.12647 37094 ft 460 kts 147°
2026-04-27 14:00 45.29196 11.17631 37109 ft 460 kts 147°
2026-04-27 14:00 45.23847 11.22606 37110 ft 460 kts 147°
2026-04-27 14:01 45.18504 11.27571 37122 ft 460 kts 147°
2026-04-27 14:01 45.13148 11.32528 37138 ft 459 kts 147°
2026-04-27 14:02 45.07829 11.37440 37137 ft 459 kts 147°
2026-04-27 14:02 45.02471 11.42371 37149 ft 460 kts 147°
2026-04-27 14:03 44.97113 11.47302 37143 ft 459 kts 147°
2026-04-27 14:03 44.91763 11.52221 37166 ft 459 kts 147°
2026-04-27 14:04 44.86439 11.57093 37169 ft 459 kts 147°
2026-04-27 14:04 44.81067 11.61978 37163 ft 459 kts 148°
2026-04-27 14:05 44.75600 11.66648 37162 ft 459 kts 150°
2026-04-27 14:05 44.70057 11.71118 37165 ft 460 kts 150°
2026-04-27 14:06 44.64544 11.75561 37161 ft 460 kts 150°
2026-04-27 14:06 44.59021 11.80098 37174 ft 460 kts 150°
2026-04-27 14:07 44.53505 11.84657 37167 ft 460 kts 150°
2026-04-27 14:07 44.47986 11.89189 37172 ft 460 kts 150°
2026-04-27 14:08 44.42494 11.93664 37172 ft 460 kts 150°
2026-04-27 14:08 44.36961 11.98157 37172 ft 460 kts 150°
2026-04-27 14:09 44.31427 12.02657 37171 ft 460 kts 150°
2026-04-27 14:09 44.25931 12.07121 37102 ft 460 kts 150°
2026-04-27 14:10 44.20401 12.11597 37099 ft 460 kts 150°
2026-04-27 14:10 44.14860 12.16070 37102 ft 460 kts 150°
2026-04-27 14:11 44.09321 12.20529 37157 ft 460 kts 150°
2026-04-27 14:11 44.03779 12.24991 37142 ft 460 kts 150°
2026-04-27 14:12 43.98244 12.29439 37147 ft 460 kts 150°
2026-04-27 14:12 43.92743 12.33844 37128 ft 460 kts 150°
2026-04-27 14:13 43.87203 12.38257 37136 ft 459 kts 150°
2026-04-27 14:13 43.81663 12.42678 37139 ft 459 kts 150°
2026-04-27 14:14 43.76128 12.47081 37136 ft 459 kts 150°
2026-04-27 14:14 43.70623 12.51449 37125 ft 459 kts 150°
2026-04-27 14:15 43.65092 12.55828 37119 ft 459 kts 150°
2026-04-27 14:15 43.59554 12.60208 37114 ft 458 kts 150°
2026-04-27 14:16 43.54022 12.64573 37110 ft 458 kts 150°
2026-04-27 14:16 43.48522 12.68900 37103 ft 458 kts 150°
2026-04-27 14:17 43.42993 12.73242 37100 ft 457 kts 150°
2026-04-27 14:17 43.37465 12.77572 37103 ft 457 kts 150°
2026-04-27 14:18 43.31944 12.81887 37101 ft 457 kts 150°
2026-04-27 14:18 43.26443 12.86188 37096 ft 457 kts 150°
2026-04-27 14:19 43.20868 12.90374 37093 ft 457 kts 157°
2026-04-27 14:19 43.14855 12.93150 37099 ft 456 kts 163°
2026-04-27 14:20 43.08799 12.95748 37101 ft 457 kts 163°
2026-04-27 14:20 43.02772 12.98332 37108 ft 457 kts 163°
2026-04-27 14:21 42.96712 13.00928 37113 ft 457 kts 163°
2026-04-27 14:21 42.90652 13.03527 37115 ft 456 kts 163°
2026-04-27 14:22 42.84584 13.06098 37111 ft 456 kts 163°
2026-04-27 14:22 42.78525 13.08662 37118 ft 456 kts 163°
2026-04-27 14:23 42.72499 13.11215 37119 ft 456 kts 163°
2026-04-27 14:23 42.66433 13.13777 37130 ft 457 kts 164°
2026-04-27 14:24 42.60360 13.16339 37122 ft 457 kts 164°
2026-04-27 14:24 42.54291 13.18911 37122 ft 457 kts 164°
2026-04-27 14:25 42.48208 13.21476 37124 ft 457 kts 164°
2026-04-27 14:25 42.42167 13.24007 37118 ft 458 kts 165°
2026-04-27 14:26 42.36078 13.26543 37120 ft 458 kts 165°
2026-04-27 14:26 42.29993 13.29082 37122 ft 458 kts 165°
2026-04-27 14:27 42.23897 13.31628 36779 ft 460 kts 165°
2026-04-27 14:27 42.20861 13.32907 35898 ft 465 kts 162°
2026-04-27 14:27 42.17887 13.34632 35040 ft 470 kts 153°
2026-04-27 14:27 42.15132 13.37023 34452 ft 468 kts 143°
2026-04-27 14:28 42.12695 13.39898 33867 ft 466 kts 137°
2026-04-27 14:28 42.10349 13.42883 33294 ft 461 kts 138°
2026-04-27 14:28 42.08027 13.45817 32740 ft 457 kts 138°
2026-04-27 14:28 42.05712 13.48733 32190 ft 453 kts 138°
2026-04-27 14:29 42.03422 13.51619 31642 ft 450 kts 138°
2026-04-27 14:29 42.01151 13.54487 31103 ft 447 kts 138°
2026-04-27 14:29 41.98922 13.57297 30581 ft 444 kts 139°
2026-04-27 14:29 41.96676 13.60130 30032 ft 442 kts 139°
2026-04-27 14:30 41.94444 13.62941 29488 ft 438 kts 138°
2026-04-27 14:30 41.92234 13.65720 28982 ft 433 kts 138°
2026-04-27 14:30 41.90044 13.68471 28487 ft 429 kts 138°
2026-04-27 14:30 41.87873 13.71193 27995 ft 425 kts 138°
2026-04-27 14:31 41.85723 13.73886 27531 ft 421 kts 138°
2026-04-27 14:31 41.83617 13.76520 27062 ft 417 kts 138°
2026-04-27 14:31 41.81505 13.79160 26615 ft 413 kts 138°
2026-04-27 14:31 41.79413 13.81768 26168 ft 409 kts 138°
2026-04-27 14:32 41.77335 13.84359 25712 ft 407 kts 138°
2026-04-27 14:32 41.75268 13.86932 25265 ft 404 kts 138°
2026-04-27 14:32 41.73220 13.89484 24805 ft 402 kts 137°
2026-04-27 14:32 41.71178 13.92035 24338 ft 401 kts 137°
2026-04-27 14:33 41.69144 13.94576 23863 ft 399 kts 137°
2026-04-27 14:33 41.67140 13.97070 23340 ft 398 kts 137°
2026-04-27 14:33 41.65122 13.99575 22862 ft 395 kts 137°
2026-04-27 14:33 41.63117 14.02062 22389 ft 392 kts 137°
2026-04-27 14:34 41.61156 14.04582 21921 ft 389 kts 135°
2026-04-27 14:34 41.59294 14.07182 21455 ft 387 kts 133°
2026-04-27 14:34 41.57484 14.09840 20991 ft 385 kts 132°
2026-04-27 14:34 41.55707 14.12505 20523 ft 384 kts 131°
2026-04-27 14:35 41.53954 14.15134 20067 ft 382 kts 132°
2026-04-27 14:35 41.52187 14.17758 19603 ft 381 kts 132°
2026-04-27 14:35 41.50409 14.20370 19152 ft 380 kts 133°
2026-04-27 14:35 41.48620 14.22968 18704 ft 380 kts 133°
2026-04-27 14:36 41.46826 14.25547 18222 ft 379 kts 133°
2026-04-27 14:36 41.45034 14.28121 17753 ft 377 kts 133°
2026-04-27 14:36 41.43256 14.30677 17309 ft 375 kts 133°
2026-04-27 14:36 41.41407 14.33073 17012 ft 367 kts 139°
2026-04-27 14:37 41.39464 14.35351 16114 ft 379 kts 139°
2026-04-27 14:37 41.37498 14.37652 15857 ft 371 kts 139°
2026-04-27 14:37 41.35615 14.39852 15731 ft 359 kts 139°
2026-04-27 14:37 41.33751 14.41983 15606 ft 348 kts 144°
2026-04-27 14:38 41.31752 14.43707 15475 ft 338 kts 149°
2026-04-27 14:38 41.29786 14.45331 15361 ft 328 kts 149°
2026-04-27 14:38 41.27871 14.46910 15230 ft 319 kts 149°
2026-04-27 14:38 41.25873 14.48025 15103 ft 308 kts 174°
2026-04-27 14:39 41.23811 14.47758 14984 ft 293 kts 205°
2026-04-27 14:39 41.22197 14.46273 14800 ft 280 kts 233°
2026-04-27 14:39 41.21135 14.44173 14524 ft 277 kts 241°
2026-04-27 14:39 41.20130 14.42005 14246 ft 276 kts 242°
2026-04-27 14:40 41.19125 14.39839 13970 ft 276 kts 238°
2026-04-27 14:40 41.17756 14.38090 13681 ft 277 kts 208°
2026-04-27 14:40 41.15897 14.37550 13359 ft 277 kts 174°
2026-04-27 14:40 41.14093 14.38378 13023 ft 277 kts 149°
2026-04-27 14:41 41.12449 14.39717 12658 ft 278 kts 148°
2026-04-27 14:41 41.10813 14.41075 12308 ft 277 kts 148°
2026-04-27 14:41 41.09380 14.42708 12002 ft 275 kts 123°
2026-04-27 14:41 41.08723 14.45068 11692 ft 271 kts 91°
2026-04-27 14:42 41.09046 14.47447 11365 ft 267 kts 62°
2026-04-27 14:42 41.10046 14.49503 11128 ft 265 kts 55°
2026-04-27 14:42 41.11055 14.51563 11103 ft 268 kts 57°
2026-04-27 14:42 41.12035 14.53664 11048 ft 267 kts 57°
2026-04-27 14:43 41.13007 14.55774 10866 ft 268 kts 58°
2026-04-27 14:43 41.13978 14.57876 10674 ft 267 kts 57°
2026-04-27 14:43 41.14951 14.59966 10482 ft 266 kts 57°
2026-04-27 14:43 41.15909 14.62033 10289 ft 266 kts 58°
2026-04-27 14:44 41.16868 14.64115 10095 ft 265 kts 58°
2026-04-27 14:44 41.17829 14.66197 9890 ft 264 kts 58°
2026-04-27 14:44 41.18787 14.68271 9680 ft 263 kts 58°
2026-04-27 14:44 41.19740 14.70336 9463 ft 262 kts 58°
2026-04-27 14:45 41.20430 14.72551 9256 ft 260 kts 84°
2026-04-27 14:45 41.20138 14.74877 9053 ft 259 kts 118°
2026-04-27 14:45 41.18935 14.76593 8849 ft 257 kts 149°
2026-04-27 14:45 41.17391 14.77801 8648 ft 258 kts 149°
2026-04-27 14:46 41.15875 14.79022 8453 ft 257 kts 149°
2026-04-27 14:46 41.14223 14.79843 8239 ft 254 kts 178°
2026-04-27 14:46 41.12538 14.79332 8041 ft 252 kts 212°
2026-04-27 14:46 41.11347 14.77663 7856 ft 252 kts 238°
2026-04-27 14:47 41.10419 14.75690 7654 ft 252 kts 238°
2026-04-27 14:47 41.09501 14.73715 7453 ft 252 kts 238°
2026-04-27 14:47 41.08586 14.71742 7263 ft 251 kts 238°
2026-04-27 14:47 41.07671 14.69774 7093 ft 250 kts 238°
2026-04-27 14:48 41.06770 14.67841 6994 ft 250 kts 238°
2026-04-27 14:48 41.04928 14.63913 6607 ft 251 kts 238°
2026-04-27 14:48 41.04011 14.61951 6247 ft 250 kts 237°
2026-04-27 14:49 41.03101 14.60000 5875 ft 249 kts 237°
2026-04-27 14:49 41.02194 14.58055 5516 ft 246 kts 237°
2026-04-27 14:49 41.01297 14.56134 5162 ft 244 kts 237°
2026-04-27 14:49 41.00403 14.54222 4801 ft 244 kts 237°
2026-04-27 14:50 40.99508 14.52307 4431 ft 244 kts 236°
2026-04-27 14:50 40.98633 14.50437 4078 ft 238 kts 237°
2026-04-27 14:50 40.97779 14.48612 3736 ft 229 kts 237°
2026-04-27 14:50 40.96958 14.46860 3417 ft 219 kts 238°
2026-04-27 14:51 40.96171 14.45181 3097 ft 211 kts 238°
2026-04-27 14:51 40.95412 14.43563 2828 ft 201 kts 238°
2026-04-27 14:51 40.94692 14.42030 2525 ft 193 kts 239°
2026-04-27 14:51 40.94227 14.41039 2329 ft 190 kts 239°
2026-04-27 14:52 40.93309 14.39084 1956 ft 182 kts 239°
2026-04-27 14:52 40.92654 14.37688 1683 ft 178 kts 238°
2026-04-27 14:52 40.92025 14.36351 1421 ft 164 kts 237°
2026-04-27 14:52 40.91450 14.35126 1202 ft 151 kts 234°
2026-04-27 14:53 40.90912 14.33984 996 ft 144 kts 236°
2026-04-27 14:53 40.90400 14.32876 766 ft 139 kts 233°
2026-04-27 14:53 40.89888 14.31801 540 ft 139 kts 231°
2026-04-27 14:53 40.89386 14.30734 353 ft 137 kts 233°
2026-04-27 14:54 40.88886 14.29674 254 ft 132 kts 234°
2026-04-27 14:54 40.88537 14.28938 271 ft 52 kts 238°
2026-04-27 14:54 40.88423 14.28697 276 ft 27 kts 237°
2026-04-27 14:54 40.88314 14.28500 281 ft 26 kts 223°
2026-04-27 14:55 40.88205 14.28403 284 ft 11 kts 210°
2026-04-27 14:55 40.88147 14.28365 286 ft 7 kts 205°
2026-04-27 14:55 40.88121 14.28347 286 ft 0 kts 209°
2026-04-27 14:56 40.88120 14.28347 286 ft 1 kts 209°
2026-04-27 14:56 40.88104 14.28335 289 ft 3 kts 208°
2026-04-27 14:56 40.88075 14.28331 287 ft 6 kts 156°
2026-04-27 14:57 40.88056 14.28400 290 ft 12 kts 98°
2026-04-27 14:57 40.88045 14.28495 285 ft 9 kts 105°
2026-04-27 14:57 40.87994 14.28514 286 ft 9 kts 203°
2026-04-27 14:57 40.87948 14.28465 287 ft 8 kts 230°
2026-04-27 14:58 40.87942 14.28411 288 ft 5 kts 270°
2026-04-27 14:58 40.87943 14.28367 291 ft 8 kts 272°
2026-04-27 14:58 40.87949 14.28258 290 ft 11 kts 261°
2026-04-27 14:58 40.87893 14.28229 292 ft 8 kts 187°
2026-04-27 14:59 40.87883 14.28227 294 ft 0 kts 187°